FW5468 Weather Reports


time (UTC)temp
F
wind
direction
speed
knots
gust
knots
rain 1hr
in
rain 24hr
in
rain mn
in
humidity
%
barometer
mb
20191023173050 66 230 0.9 7.8 0.00 0.01 0.00 44 1020.7
20191023170148 66 188 1.7 7.0 0.00 0.01 0.00 41 1021.0
20191023163136 65 181 2.6 5.2 0.00 0.01 0.00 53 1021.4
20191023161507 64 168 3.5 7.8 0.00 0.01 0.00 54 1021.3
20191023160137 62 167 2.6 6.1 0.00 0.01 0.00 57 1021.3
20191023153047 58 233 0.9 4.3 0.00 0.01 0.00 59 1021.3
20191023150120 55 179 1.7 4.3 0.00 0.01 0.00 71 1021.1
20191023144733 53 195 0.9 3.5 0.00 0.01 0.00 73 1021.2
20191023141721 46 161 0.9 2.6 0.00 0.01 0.00 92 1021.0
20191023140001 44 165 0.0 2.6 0.00 0.01 0.00 97 1020.8
20191023134656 42 219 0.0 3.5 0.00 0.01 0.00 97 1020.7
20191023133049 40 127 0.0 1.7 0.00 0.01 0.00 97 1020.5
20191023130142 38 120 0.0 1.7 0.00 0.01 0.00 96 1020.1
20191023124550 37 108 0.0 1.7 0.00 0.01 0.00 95 1020.0
20191023123143 37 109 0.9 1.7 0.00 0.01 0.00 95 1019.9
20191023121556 37 93 0.0 1.7 0.00 0.01 0.00 94 1019.8
20191023120158 37 91 0.0 1.7 0.00 0.01 0.00 94 1019.7
20191023114602 38 93 0.9 1.7 0.00 0.01 0.00 94 1019.7
20191023111748 38 91 0.0 0.9 0.00 0.01 0.00 94 1019.8
20191023110010 39 92 0.0 0.9 0.00 0.01 0.00 94 1019.7
20191023104633 39 93 0.0 1.7 0.00 0.01 0.00 94 1019.8
20191023101726 39 91 0.0 0.9 0.00 0.01 0.00 94 1019.5
20191023094624 39 92 0.0 0.9 0.00 0.01 0.00 93 1018.9
20191023091749 40 85 0.0 1.7 0.00 0.01 0.00 93 1018.5
20191023090021 40 145 0.9 1.7 0.00 0.01 0.00 93 1018.4
20191023084731 40 108 0.0 2.6 0.00 0.01 0.00 93 1018.3
20191023083005 41 212 0.9 1.7 0.00 0.01 0.00 92 1018.3
20191023081728 41 211 0.0 1.7 0.00 0.01 0.00 91 1018.5
20191023074629 42 211 0.0 1.7 0.00 0.01 0.00 92 1018.5
20191023073007 42 212 0.0 0.0 0.00 0.01 0.00 91 1018.5
20191023071633 43 212 0.0 0.9 0.00 0.01 0.00 90 1018.5
20191023070047 43 211 0.0 0.9 0.00 0.01 0.00 89 1018.5
20191023063125 44 212 0.0 1.7 0.00 0.01 0.01 87 1018.3
20191023061512 45 246 0.0 1.7 0.00 0.01 0.01 85 1018.4
20191023060126 46 249 0.0 1.7 0.00 0.01 0.01 83 1018.3
20191023054536 46 250 0.0 0.9 0.00 0.01 0.01 81 1018.5
20191023053150 47 230 0.0 1.7 0.00 0.01 0.01 80 1018.5
20191023051510 47 230 0.9 2.6 0.00 0.01 0.01 80 1018.6
20191023050227 47 242 0.0 1.7 0.00 0.01 0.01 80 1018.7
20191023044511 47 248 0.0 0.9 0.00 0.01 0.01 81 1018.6
20191023043145 47 301 0.0 2.6 0.00 0.01 0.01 80 1018.5
20191023041604 46 237 0.0 0.0 0.00 0.01 0.01 81 1018.2
20191023034739 47 206 0.0 0.0 0.00 0.01 0.01 79 1018.0
20191023031644 49 263 0.0 1.7 0.00 0.01 0.01 75 1017.8
20191023030025 49 244 0.0 1.7 0.00 0.01 0.01 72 1017.9
20191023024629 50 210 0.0 3.5 0.00 0.01 0.01 72 1017.7
20191023023115 50 268 0.0 1.7 0.00 0.01 0.01 71 1017.5
20191023020152 50 231 0.9 3.5 0.00 0.01 0.01 71 1017.2
20191023013112 50 210 0.9 1.7 0.00 0.01 0.01 71 1017.0
20191023011503 51 273 0.9 1.7 0.00 0.01 0.01 68 1016.9
20191023010210 51 237 0.9 3.5 0.00 0.01 0.01 68 1016.8
20191023004514 51 215 0.9 4.3 0.00 0.01 0.01 64 1016.7
20191023003229 52 241 0.9 3.5 0.00 0.01 0.01 65 1016.6
20191023001642 52 224 0.0 0.9 0.00 0.01 0.01 64 1016.4
20191022234625 55 245 0.0 2.6 0.00 0.01 0.01 57 1016.1
20191022231643 58 309 0.0 4.3 0.00 0.01 0.01 47 1015.7
20191022224630 60 258 1.7 7.8 0.00 0.01 0.01 41 1015.3
20191022223011 61 13 1.7 8.7 0.00 0.01 0.01 41 1015.4
20191022221636 61 300 4.3 11.3 0.00 0.01 0.01 38 1015.5
20191022220010 61 301 6.1 14.8 0.00 0.01 0.01 38 1015.4
20191022214648 61 295 4.3 13.9 0.00 0.01 0.01 40 1015.5
20191022211614 63 4 3.5 11.3 0.00 0.01 0.01 41 1015.3
20191022210049 64 335 7.0 20.0 0.00 0.01 0.01 38 1015.4
20191022204654 64 287 5.2 14.8 0.00 0.01 0.01 39 1015.2
20191022201631 63 29 7.8 18.2 0.00 0.01 0.01 43 1015.0
20191022200006 64 262 6.1 13.9 0.00 0.01 0.01 44 1015.0
20191022194700 65 330 3.5 10.4 0.00 0.01 0.01 45 1014.9
20191022193053 64 286 5.2 11.3 0.00 0.01 0.01 46 1015.1
20191022191651 64 305 3.5 17.4 0.00 0.01 0.01 50 1015.2
20191022190130 64 319 5.2 14.8 0.00 0.01 0.01 47 1015.1
20191022184728 64 227 3.5 14.8 0.01 0.01 0.01 53 1014.9
20191022183057 63 4 5.2 13.9 0.01 0.02 0.01 53 1015.4
20191022180058 62 276 6.1 14.8 0.01 0.02 0.01 53 1015.5
20191022174813 61 339 4.3 14.8 0.00 0.01 0.00 56 1015.6